Change the Weather History Date:

Monday, April 1, 2013

  Actual Average Record
Temperature  
Mean Temperature 39 °F 48 °F  
Max Temperature 46 °F 58 °F 86 °F (2012)
Min Temperature 32 °F 37 °F 28 °F (2002)
Degree Days  
Heating Degree Days 26 18  
Month to date heating degree days 26 18  
Since 1 July heating degree days 4903 5002  
Cooling Degree Days 0 0  
Month to date cooling degree days 0 0  
Year to date cooling degree days 0 1  
Moisture  
Dew Point 19 °F    
Average Humidity 44    
Maximum Humidity 61    
Minimum Humidity 27    
Precipitation  
Precipitation 0.00 in 0.10 in 0.11 in (2014)
Month to date precipitation 0.00 0.10  
Year to date precipitation 5.08 6.46  
Sea Level Pressure  
Sea Level Pressure 30.13 in    
Wind  
Wind Speed 13 mph (NW)    
Max Wind Speed 22 mph    
Max Gust Speed 30 mph    
Visibility 10 miles    
Events      
T = Trace of Precipitation, MM = Missing Value Source: NWS Daily Summary

Daily Weather History Graph

Daily Weather History Graph

Search for Another Location

Airport or City:

Trip Planner

Search our weather history database for the weather conditions in past years. The results will help you decide how hot, cold, wet, or windy it might be!

Date:

Astronomy

Apr. 01, 2013 Rise Set
Actual Time 6:39 AM CDT 7:19 PM CDT
Civil Twilight 6:11 AM CDT 7:47 PM CDT
Nautical Twilight 5:39 AM CDT 8:19 PM CDT
Astronomical Twilight 5:06 AM CDT 8:52 PM CDT
Moon 12:27 AM CDT (4/1) 10:26 AM CDT (4/1)
Length of Visible Light 13h 35m
Length of Day
12h 40m
Waning Gibbous, 67% of the Moon is Illuminated
Apr 1
Waning Gibbous
Apr 2
Last Quarter
Apr 10
New
Apr 18
First Quarter
Apr 25
Full

Hourly Weather History & Observations

Time (CDT) Temp. Windchill Dew Point Humidity Pressure Visibility Wind Dir Wind Speed Gust Speed Precip Events Conditions
12:54 AM 41.0 °F 33.1 °F 28.0 °F 60% 29.96 in 10.0 mi NNW 15.0 mph - N/A   Mostly Cloudy
1:54 AM 39.9 °F 32.1 °F 27.0 °F 60% 29.98 in 10.0 mi NNW 13.8 mph 25.3 mph N/A   Overcast
2:54 AM 39.0 °F 30.3 °F 26.1 °F 60% 30.01 in 10.0 mi NNW 16.1 mph 25.3 mph N/A   Overcast
3:54 AM 37.9 °F 29.2 °F 23.0 °F 55% 30.02 in 10.0 mi NNW 15.0 mph 23.0 mph N/A   Overcast
4:54 AM 37.0 °F 28.5 °F 23.0 °F 57% 30.04 in 10.0 mi NNW 13.8 mph 20.7 mph N/A   Overcast
5:54 AM 36.0 °F 28.5 °F 21.9 °F 57% 30.06 in 10.0 mi NNW 10.4 mph - N/A   Overcast
6:54 AM 33.1 °F 23.0 °F 21.9 °F 64% 30.10 in 10.0 mi NW 15.0 mph - N/A   Scattered Clouds
8:54 AM 36.0 °F 27.5 °F 21.9 °F 57% 30.15 in 10.0 mi NNW 12.7 mph 21.9 mph N/A   Clear
9:54 AM 39.0 °F 31.4 °F 21.0 °F 49% 30.17 in 10.0 mi North 12.7 mph - N/A   Clear
10:54 AM 39.9 °F 31.1 °F 18.0 °F 41% 30.18 in 10.0 mi NW 17.3 mph 24.2 mph N/A   Partly Cloudy
11:54 AM 42.1 °F 34.9 °F 19.0 °F 40% 30.18 in 10.0 mi North 13.8 mph 20.7 mph N/A   Clear
1:54 PM 44.1 °F 38.6 °F 17.1 °F 34% 30.17 in 10.0 mi NW 10.4 mph 24.2 mph N/A   Clear
2:54 PM 45.0 °F 39.3 °F 17.1 °F 33% 30.17 in 10.0 mi NW 11.5 mph 25.3 mph N/A   Partly Cloudy
3:54 PM 46.0 °F 39.3 °F 16.0 °F 30% 30.17 in 10.0 mi NW 16.1 mph 23.0 mph N/A   Clear
5:54 PM 44.1 °F 37.4 °F 12.9 °F 28% 30.17 in 10.0 mi WNW 13.8 mph 20.7 mph N/A   Partly Cloudy
6:54 PM 42.1 °F 34.5 °F 12.0 °F 29% 30.18 in 10.0 mi WNW 15.0 mph - N/A   Clear
7:54 PM 39.0 °F 32.8 °F 14.0 °F 36% 30.19 in 10.0 mi NW 9.2 mph - N/A   Clear
8:54 PM 37.0 °F 29.8 °F 16.0 °F 42% 30.21 in 10.0 mi NW 10.4 mph - N/A   Clear
9:54 PM 36.0 °F 28.5 °F 16.0 °F 44% 30.22 in 10.0 mi NW 10.4 mph - N/A   Clear
10:54 PM 34.0 °F 25.5 °F 16.0 °F 48% 30.22 in 10.0 mi NNW 11.5 mph - N/A   Clear
11:54 PM 33.1 °F 24.9 °F 17.1 °F 52% 30.23 in 10.0 mi NNW 10.4 mph - N/A   Clear